| time (UTC) | temp C | wind direction | speed KPH | gust KPH | rain 1hr cm | rain 24hr cm | rain mn cm | humidity % | barometer mb |
| 20260504130159 | 20 | 30 | 6.4 | 11.3 | 0.00 | 0.00 | 0.00 | 85 | 1014.0 |
| 20260504120157 | 20 | 36 | 6.4 | 8.0 | 0.00 | 0.00 | 0.00 | 88 | 1014.0 |
| 20260504110154 | 17 | 36 | 6.4 | 9.7 | 0.00 | 0.00 | 0.00 | 88 | 1014.0 |
| 20260504100152 | 18 | 37 | 6.4 | 8.0 | 0.00 | 0.00 | 0.00 | 86 | 1013.0 |
| 20260504081149 | 19 | 43 | 4.8 | 8.0 | 0.00 | 0.00 | 0.00 | 78 | 1014.0 |
| 20260504080149 | 18 | 43 | 4.8 | 8.0 | 0.00 | 0.00 | 0.00 | 78 | 1014.0 |
| 20260504070146 | 20 | 56 | 4.8 | 8.0 | 0.00 | 0.00 | 0.00 | 73 | 1014.0 |
| 20260504060144 | 21 | 67 | 4.8 | 8.0 | 0.00 | 0.00 | 0.00 | 69 | 1015.0 |
| 20260504050142 | 21 | 57 | 4.8 | 4.8 | 0.00 | 0.00 | 0.00 | 61 | 1015.0 |
| 20260504045141 | 20 | 57 | 4.8 | 4.8 | 0.00 | 0.00 | 0.00 | 61 | 1015.0 |
| 20260504044141 | 20 | 57 | 4.8 | 4.8 | 0.00 | 0.00 | 0.00 | 61 | 1015.0 |
| 20260504043140 | 19 | 57 | 4.8 | 4.8 | 0.00 | 0.00 | 0.00 | 61 | 1015.0 |
| 20260504042140 | 23 | 50 | 1.6 | 1.6 | 0.00 | 0.00 | 0.00 | 56 | 1015.0 |
| 20260504041140 | 22 | 50 | 1.6 | 1.6 | 0.00 | 0.00 | 0.00 | 56 | 1015.0 |
| 20260504040140 | 22 | 50 | 1.6 | 1.6 | 0.00 | 0.00 | 0.00 | 56 | 1015.0 |
| 20260504035140 | 21 | 50 | 1.6 | 1.6 | 0.00 | 0.00 | 0.00 | 56 | 1015.0 |
| 20260504034139 | 21 | 50 | 1.6 | 1.6 | 0.00 | 0.00 | 0.00 | 56 | 1015.0 |
| 20260504033139 | 20 | 50 | 1.6 | 1.6 | 0.00 | 0.00 | 0.00 | 56 | 1015.0 |
| 20260504032138 | 20 | 50 | 3.2 | 1.6 | 0.00 | 0.00 | 0.00 | 56 | 1014.0 |
| 20260504031138 | 23 | 50 | 1.6 | 1.6 | 0.00 | 0.00 | 0.00 | 57 | 1014.0 |
| 20260504030138 | 23 | 50 | 1.6 | 1.6 | 0.00 | 0.00 | 0.00 | 57 | 1014.0 |
| 20260504025135 | 22 | 50 | 1.6 | 1.6 | 0.00 | 0.00 | 0.00 | 57 | 1014.0 |
| 20260504024135 | 22 | 50 | 3.2 | 1.6 | 0.00 | 0.00 | 0.00 | 57 | 1014.0 |
| 20260504023135 | 22 | 50 | 3.2 | 1.6 | 0.00 | 0.00 | 0.00 | 57 | 1014.0 |
| 20260504022134 | 24 | 59 | 1.6 | 4.8 | 0.00 | 0.00 | 0.00 | 54 | 1013.0 |
| 20260504021134 | 24 | 59 | 1.6 | 4.8 | 0.00 | 0.00 | 0.00 | 54 | 1013.0 |
| 20260504015134 | 23 | 59 | 1.6 | 4.8 | 0.00 | 0.00 | 0.00 | 54 | 1013.0 |
| 20260504014133 | 23 | 59 | 1.6 | 4.8 | 0.00 | 0.00 | 0.00 | 54 | 1013.0 |
| 20260504013133 | 22 | 59 | 3.2 | 4.8 | 0.00 | 0.00 | 0.00 | 54 | 1013.0 |
| 20260504012133 | 25 | 75 | 1.6 | 1.6 | 0.00 | 0.00 | 0.00 | 51 | 1012.0 |
| 20260504011133 | 24 | 75 | 1.6 | 1.6 | 0.00 | 0.00 | 0.00 | 51 | 1012.0 |
| 20260504010132 | 23 | 75 | 3.2 | 3.2 | 0.00 | 0.00 | 0.00 | 51 | 1012.0 |
| 20260504005132 | 25 | 75 | 3.2 | 3.2 | 0.00 | 0.00 | 0.00 | 48 | 1012.0 |
| 20260504004132 | 25 | 75 | 3.2 | 3.2 | 0.00 | 0.00 | 0.00 | 48 | 1012.0 |
| 20260504003131 | 26 | 95 | 11.3 | 29.0 | 0.00 | 0.00 | 0.00 | 41 | 1012.0 |
| 20260504002129 | 25 | 95 | 11.3 | 29.0 | 0.00 | 0.00 | 0.00 | 41 | 1011.0 |
| 20260504001128 | 27 | 95 | 11.3 | 29.0 | 0.00 | 0.00 | 0.00 | 41 | 1011.0 |
| 20260504000127 | 26 | 95 | 11.3 | 29.0 | 0.00 | 0.00 | 0.00 | 41 | 1011.0 |
| 20260503235127 | 27 | 95 | 11.3 | 29.0 | 0.00 | 0.00 | 0.00 | 41 | 1011.0 |
| 20260503234127 | 27 | 95 | 11.3 | 29.0 | 0.00 | 0.00 | 0.00 | 39 | 1010.0 |
| 20260503233126 | 29 | 98 | 12.9 | 17.7 | 0.00 | 0.00 | 0.00 | 33 | 1009.0 |
| 20260503232126 | 28 | 98 | 12.9 | 17.7 | 0.00 | 0.00 | 0.00 | 33 | 1009.0 |
| 20260503231126 | 28 | 98 | 14.5 | 17.7 | 0.00 | 0.00 | 0.00 | 33 | 1009.0 |
| 20260503230125 | 31 | 82 | 12.9 | 12.9 | 0.00 | 0.00 | 0.00 | 31 | 1009.0 |
| 20260503225125 | 31 | 82 | 12.9 | 12.9 | 0.00 | 0.00 | 0.00 | 31 | 1009.0 |
| 20260503224125 | 31 | 82 | 12.9 | 12.9 | 0.00 | 0.00 | 0.00 | 31 | 1009.0 |
| 20260503223124 | 30 | 82 | 12.9 | 12.9 | 0.00 | 0.00 | 0.00 | 31 | 1009.0 |
| 20260503222124 | 30 | 82 | 12.9 | 12.9 | 0.00 | 0.00 | 0.00 | 31 | 1009.0 |
| 20260503221124 | 29 | 82 | 12.9 | 12.9 | 0.00 | 0.00 | 0.00 | 31 | 1009.0 |
| 20260503220123 | 28 | 82 | 12.9 | 12.9 | 0.00 | 0.00 | 0.00 | 31 | 1009.0 |
| 20260503215123 | 28 | 82 | 12.9 | 12.9 | 0.00 | 0.00 | 0.00 | 31 | 1009.0 |
| 20260503214123 | 27 | 82 | 14.5 | 12.9 | 0.00 | 0.00 | 0.00 | 31 | 1009.0 |
| 20260503213122 | 34 | 77 | 12.9 | 11.3 | 0.00 | 0.00 | 0.00 | 30 | 1009.0 |
| 20260503212122 | 33 | 77 | 12.9 | 11.3 | 0.00 | 0.00 | 0.00 | 30 | 1009.0 |
| 20260503211121 | 33 | 77 | 12.9 | 11.3 | 0.00 | 0.00 | 0.00 | 30 | 1009.0 |
| 20260503210121 | 32 | 77 | 12.9 | 11.3 | 0.00 | 0.00 | 0.00 | 30 | 1009.0 |
| 20260503205121 | 32 | 77 | 12.9 | 11.3 | 0.00 | 0.00 | 0.00 | 30 | 1009.0 |
| 20260503204121 | 32 | 77 | 12.9 | 11.3 | 0.00 | 0.00 | 0.00 | 30 | 1009.0 |
| 20260503203120 | 31 | 77 | 12.9 | 11.3 | 0.00 | 0.00 | 0.00 | 30 | 1009.0 |
| 20260503202120 | 31 | 77 | 12.9 | 11.3 | 0.00 | 0.00 | 0.00 | 30 | 1010.0 |
| 20260503201119 | 30 | 77 | 12.9 | 11.3 | 0.00 | 0.00 | 0.00 | 30 | 1010.0 |
| 20260503200119 | 30 | 77 | 12.9 | 11.3 | 0.00 | 0.00 | 0.00 | 30 | 1010.0 |
| 20260503195119 | 29 | 77 | 12.9 | 11.3 | 0.00 | 0.00 | 0.00 | 30 | 1010.0 |
| 20260503194119 | 28 | 77 | 12.9 | 11.3 | 0.00 | 0.00 | 0.00 | 31 | 1010.0 |
| 20260503193118 | 28 | 77 | 12.9 | 11.3 | 0.00 | 0.00 | 0.00 | 30 | 1010.0 |
| 20260503192118 | 28 | 73 | 12.9 | 12.9 | 0.00 | 0.00 | 0.00 | 33 | 1011.0 |
| 20260503191117 | 28 | 73 | 12.9 | 12.9 | 0.00 | 0.00 | 0.00 | 32 | 1011.0 |
| 20260503190117 | 28 | 73 | 12.9 | 12.9 | 0.00 | 0.00 | 0.00 | 32 | 1011.0 |
| 20260503185117 | 28 | 73 | 12.9 | 12.9 | 0.00 | 0.00 | 0.00 | 32 | 1011.0 |
| 20260503184116 | 28 | 73 | 12.9 | 12.9 | 0.00 | 0.00 | 0.00 | 33 | 1011.0 |
| 20260503183116 | 27 | 73 | 12.9 | 12.9 | 0.00 | 0.00 | 0.00 | 33 | 1011.0 |
| 20260503182115 | 27 | 70 | 11.3 | 12.9 | 0.00 | 0.00 | 0.00 | 36 | 1012.0 |
| 20260503181115 | 27 | 70 | 11.3 | 12.9 | 0.00 | 0.00 | 0.00 | 36 | 1012.0 |
| 20260503180115 | 27 | 70 | 11.3 | 12.9 | 0.00 | 0.00 | 0.00 | 36 | 1012.0 |
| 20260503175114 | 27 | 70 | 11.3 | 12.9 | 0.00 | 0.00 | 0.00 | 36 | 1012.0 |
| 20260503174114 | 27 | 70 | 11.3 | 12.9 | 0.00 | 0.00 | 0.00 | 38 | 1012.0 |
| 20260503173114 | 27 | 70 | 11.3 | 12.9 | 0.00 | 0.00 | 0.00 | 38 | 1012.0 |
| 20260503172113 | 26 | 63 | 9.7 | 12.9 | 0.00 | 0.00 | 0.00 | 42 | 1013.0 |
| 20260503171113 | 26 | 63 | 9.7 | 12.9 | 0.00 | 0.00 | 0.00 | 42 | 1013.0 |
| 20260503170113 | 26 | 63 | 9.7 | 12.9 | 0.00 | 0.00 | 0.00 | 42 | 1013.0 |
| 20260503160111 | 25 | 64 | 8.0 | 14.5 | 0.00 | 0.00 | 0.00 | 56 | 1014.0 |
| 20260503150109 | 28 | 63 | 1.6 | 6.4 | 0.00 | 0.00 | 0.00 | 90 | 1014.0 |
| 20260503140106 | 25 | 63 | 1.6 | 6.4 | 0.00 | 0.00 | 0.00 | 90 | 1014.0 |